Home > Weather > Ramat Gan > Past weeks

Flag for Israel Past Weather in Ramat Gan, Israel — Yesterday and Last 2 Weeks

Now
88 °F

Passing clouds.


Feels Like: 96 °F
Forecast: 80 / 87 °F
Wind: 13 mph from Northwest

Location: Dov Airport

Current Time: Aug 27, 2016 at 4:39:26 PM

Latest Report: Aug 27, 2016 at 3:50 PM


Visibility: N/A

Pressure: 29.89 "Hg

Humidity: 62%

Dew Point: 73 °F

Location of Ramat GanLocation

Past Weather in Ramat Gan — Graph

°F

Ramat Gan Temperature Yesterday

Maximum temperature yesterday: 88 °F (at 12:50 PM)
Minimum temperature yesterday: 79 °F (at 4:50 AM)
Average temperature yesterday: 84 °F

High & Low Weather Summary for the Past Weeks

 TemperatureHumidityPressure
High88 °F (Aug 12, 2:50 PM)83% (Aug 20, 6:00 AM)29.92 "Hg (Aug 20, 6:00 AM)
Low77 °F (Aug 13, 6:00 AM)52% (Aug 16, 10:50 AM)29.71 "Hg (Aug 18, 5:50 AM)
Average84 °F67%29.80 "Hg
* Reported Aug 12 2:50 PM — Aug 27 2:50 PM, Ramat Gan, Weather by CustomWeather, © 2016

Note: Actual official high and low records may vary slightly from our data, if they occured in-between our weather recording intervals... More about our weather records

Advertising

Ramat Gan Weather History for the Previous 24 Hours

Scroll right to see more
 ConditionsComfort  
Time TempWeatherWind HumidityBarometerVisibility
2:50 PM
Sat, Aug 27
86 °FSunny.13 mph62%29.89 "Hg10 mi
1:50 PM86 °FSunny.13 mph62%29.92 "Hg10 mi
12:50 PM88 °FSunny.9 mph59%29.92 "Hg10 mi
11:50 AM86 °FSunny.8 mph59%29.92 "Hg10 mi
10:50 AM86 °FSunny.7 mph59%29.92 "Hg10 mi
9:50 AM84 °FPassing clouds.6 mph62%29.92 "HgN/A
8:50 AM82 °FScattered clouds.5 mph66%29.92 "HgN/A
7:50 AM84 °FScattered clouds.2 mph66%29.92 "HgN/A
6:50 AM81 °FPassing clouds.6 mph70%29.89 "HgN/A
6:00 AM81 °FPassing clouds.6 mph70%29.89 "HgN/A
9:50 PM
Fri, Aug 26
82 °FPassing clouds.5 mph70%29.89 "HgN/A
8:50 PM82 °FPassing clouds.7 mph70%29.86 "HgN/A
7:50 PM82 °FScattered clouds.8 mph70%29.86 "HgN/A
6:50 PM84 °FScattered clouds.9 mph70%29.86 "HgN/A
5:50 PM86 °FPassing clouds.13 mph66%29.86 "HgN/A
4:50 PM86 °FPassing clouds.12 mph62%29.86 "HgN/A
Weather by CustomWeather, © 2016

See weather overviewHow to use our weather pages